Stations météo

réclame
Mon MeteoGroup
Herrera del Duque, Espagne (8264): Température de l'air & dewpoint: 17.10.2018 11:00:00 - 23.10.2018 11:00:00 (CEST)Herrera del Duque, Espagne (8264): Vitesse du vent & gusts: 17.10.2018 11:00:00 - 23.10.2018 11:00:00 (CEST)Herrera del Duque, Espagne (8264): Direction du vent: 17.10.2018 11:00:00 - 23.10.2018 11:00:00 (CEST)Herrera del Duque, Espagne (8264): reduced air pressure: 17.10.2018 11:00:00 - 23.10.2018 11:00:00 (CEST)Herrera del Duque, Espagne (8264): visibility: 17.10.2018 11:00:00 - 23.10.2018 11:00:00 (CEST)Herrera del Duque, Espagne (8264): Ensoleillement: 17.10.2018 11:00:00 - 23.10.2018 11:00:00 (CEST)Herrera del Duque, Espagne (8264): Quantités de précipitations: 17.10.2018 11:00:00 - 23.10.2018 11:00:00 (CEST)
Date & Time tt [°C] td [°C] ff [km/h] ff [knt] fx [km/h] fx [knt] dd ppp [hPa] vv [km] sd [min] rr [mm]
23.10.2018 11:00:00 16,9 11,8 6 3 9 5 NW 1024,9 20 60 0,0
23.10.2018 10:00:00 15,5 12,2 2 1 8 4 NNE 1024,7 20 42 0,0
23.10.2018 09:00:00 13,4 10,9 4 2 7 4 WSW 1024,2 18 0 0,0
23.10.2018 08:00:00 13,1 11,1 3 2 6 3 W 1023,4 19 0 -
23.10.2018 07:00:00 13,2 11,2 4 2 5 3 SSE 1023,0 20 0 0,0
23.10.2018 06:00:00 13,4 11,2 1 1 5 3 SSE 1022,6 20 0 0,0
23.10.2018 05:00:00 14,0 11,9 4 2 6 3 SSW 1022,6 20 0 0,0
23.10.2018 04:00:00 14,8 12,3 5 3 7 4 W 1022,2 20 0 0,0
23.10.2018 03:00:00 14,3 12,3 4 2 7 4 S 1022,4 20 0 0,0
23.10.2018 02:00:00 14,8 12,6 5 3 6 3 SW 1022,5 20 0 -
23.10.2018 01:00:00 15,1 12,4 4 2 5 3 S 1022,3 20 0 0,0
23.10.2018 00:00:00 15,4 12,3 4 2 5 3 SW 1022,2 20 0 0,0
22.10.2018 23:00:00 16,2 12,3 3 2 4 2 SSW 1021,7 20 0 0,0
22.10.2018 22:00:00 16,8 13,0 2 1 5 3 SW 1021,0 20 0 0,0
22.10.2018 21:00:00 17,9 12,5 0 0 8 4 N 1020,4 6 0 0,0
22.10.2018 20:00:00 19,1 13,8 6 3 12 6 SSE 1019,9 20 0 -
22.10.2018 19:00:00 19,6 13,9 16 9 29 16 N 1019,7 20 58 2,6
22.10.2018 18:00:00 25,0 12,2 6 3 9 5 WNW 1018,2 20 37 0,0
22.10.2018 17:00:00 24,1 12,4 6 3 13 7 NNW 1018,2 20 10 0,0
22.10.2018 16:00:00 23,6 12,2 5 3 12 7 W 1018,6 20 32 0,0
22.10.2018 15:00:00 23,4 12,1 3 2 10 5 WSW 1018,8 20 48 0,0
22.10.2018 14:00:00 23,3 12,6 6 4 12 6 NNE 1019,6 20 60 -
22.10.2018 13:00:00 22,2 12,4 4 2 10 6 NE 1020,4 20 60 0,0
22.10.2018 12:00:00 20,7 12,4 2 1 7 4 SSW 1020,8 20 60 0,0
22.10.2018 11:00:00 19,1 13,1 3 2 7 4 E 1021,0 20 60 0,0
22.10.2018 10:00:00 16,8 13,4 3 2 10 5 S 1021,5 20 49 0,0
22.10.2018 09:00:00 15,0 12,8 8 4 14 8 SSW 1021,1 20 0 0,0
22.10.2018 08:00:00 15,2 12,8 4 2 8 4 N 1020,2 20 0 -
22.10.2018 07:00:00 15,7 12,8 5 3 8 5 WSW 1020,0 20 0 0,0
22.10.2018 06:00:00 15,5 13,0 4 2 9 5 ESE 1020,2 20 0 0,0
22.10.2018 05:00:00 15,6 13,1 5 3 8 4 W 1020,1 20 0 0,0
22.10.2018 04:00:00 15,8 13,1 4 2 8 4 E 1020,8 20 0 0,0
22.10.2018 03:00:00 16,4 12,1 6 3 17 9 N 1020,9 20 0 0,0
22.10.2018 02:00:00 16,9 13,1 10 6 19 10 S 1021,0 20 0 -
22.10.2018 01:00:00 16,8 12,1 11 6 25 14 SSW 1020,5 20 0 0,0
22.10.2018 00:00:00 17,3 11,8 3 2 23 12 NE 1020,3 20 0 0,0
21.10.2018 23:00:00 18,6 12,5 9 5 20 11 SSW 1019,6 20 0 0,0
21.10.2018 22:00:00 17,4 13,4 4 2 6 3 SW 1018,8 20 0 0,0
21.10.2018 21:00:00 17,8 13,6 5 3 8 4 SSE 1018,7 20 0 0,0
21.10.2018 20:00:00 19,4 13,2 5 3 9 5 WSW 1018,1 20 0 -
21.10.2018 19:00:00 20,4 13,2 5 3 10 5 W 1017,3 20 0 0,0
21.10.2018 18:00:00 21,2 12,6 8 4 14 7 NW 1017,0 20 25 0,0
21.10.2018 17:00:00 22,0 12,8 9 5 16 9 W 1017,2 20 54 0,0
21.10.2018 16:00:00 23,1 12,1 5 3 12 7 SW 1017,2 20 60 0,0
21.10.2018 15:00:00 23,0 12,6 3 1 12 7 SE 1017,5 20 21 0,0
21.10.2018 14:00:00 22,0 11,7 6 3 16 9 S 1018,3 20 32 -
21.10.2018 13:00:00 22,1 12,6 9 5 27 14 E 1018,5 20 23 0,0
21.10.2018 12:00:00 19,7 12,4 13 7 23 12 E 1018,9 20 5 0,0
21.10.2018 11:00:00 18,5 12,7 7 4 21 11 ENE 1018,8 20 0 0,0
21.10.2018 10:00:00 17,7 11,9 9 5 28 15 ESE 1019,1 20 0 0,0
21.10.2018 09:00:00 18,0 11,3 19 10 30 16 ESE 1018,5 20 0 0,0
21.10.2018 08:00:00 17,9 11,2 15 8 26 14 ESE 1017,9 20 0 -
21.10.2018 07:00:00 16,7 11,7 4 2 20 11 E 1018,1 20 0 0,0
21.10.2018 06:00:00 15,7 11,7 6 3 13 7 E 1018,1 20 0 0,0
21.10.2018 05:00:00 16,1 12,2 3 1 16 9 W 1017,8 20 0 0,0
21.10.2018 04:00:00 17,3 11,8 13 7 26 14 ESE 1017,7 20 0 0,0
21.10.2018 03:00:00 17,2 12,1 10 5 21 12 ESE 1017,9 20 0 0,0
21.10.2018 02:00:00 16,9 12,4 7 4 23 12 E 1018,1 20 0 -
21.10.2018 01:00:00 17,3 12,4 13 7 26 14 ESE 1017,8 20 0 0,0
21.10.2018 00:00:00 17,5 12,6 16 9 30 16 ESE 1017,9 20 0 0,0
20.10.2018 23:00:00 16,0 13,5 9 5 18 10 E 1017,3 20 0 0,0
20.10.2018 22:00:00 15,2 13,3 5 3 9 5 W 1017,1 20 0 0,8
20.10.2018 21:00:00 15,8 13,9 2 1 16 9 ENE 1017,3 2,0 0 0,6
20.10.2018 20:00:00 16,4 13,7 5 3 14 8 WNW 1016,7 20 0 -
20.10.2018 19:00:00 16,9 13,3 8 4 - - E 1016,0 7 0 1,4
20.10.2018 18:00:00 19,7 12,0 5 3 16 9 E 1015,1 20 8 0,2
20.10.2018 17:00:00 19,3 13,3 6 4 24 13 SE 1015,5 20 0 1,4
20.10.2018 16:00:00 21,5 10,3 15 8 28 15 E 1015,2 20 1 0,0
20.10.2018 15:00:00 21,5 10,6 15 8 31 17 E 1015,4 20 27 0,0
20.10.2018 14:00:00 21,2 10,6 19 10 32 18 E 1015,9 20 36 -
20.10.2018 13:00:00 21,0 11,3 15 8 29 16 E 1016,5 20 60 0,0
20.10.2018 12:00:00 18,9 10,4 14 7 27 14 E 1017,0 20 60 0,0
20.10.2018 11:00:00 16,6 10,4 12 7 21 12 NE 1017,0 20 60 0,0
20.10.2018 10:00:00 13,5 10,3 5 3 11 6 NNE 1017,3 20 16 0,0
20.10.2018 09:00:00 11,3 9,6 2 1 7 4 S 1017,1 20 0 0,0
20.10.2018 08:00:00 11,6 9,7 3 2 10 5 SSE 1016,6 20 0 -
20.10.2018 07:00:00 12,0 10,3 3 2 13 7 SW 1016,4 20 0 0,0
20.10.2018 06:00:00 12,4 10,4 6 4 12 6 NNE 1015,9 20 0 0,0
20.10.2018 05:00:00 12,4 11,0 3 1 8 5 NW 1015,8 20 0 0,0
20.10.2018 04:00:00 12,6 11,0 2 1 5 3 SSW 1015,5 20 0 0,0
20.10.2018 03:00:00 13,1 11,4 2 1 4 2 E 1015,3 20 0 0,2
20.10.2018 02:00:00 13,9 12,1 3 2 5 3 S 1015,2 20 0 -
20.10.2018 01:00:00 14,7 13,0 2 1 7 4 SW 1015,1 20 0 0,0
20.10.2018 00:00:00 14,9 13,0 3 2 6 4 ENE 1015,2 20 0 0,0
19.10.2018 23:00:00 15,7 13,4 2 1 5 3 S 1014,9 20 0 0,0
19.10.2018 22:00:00 15,8 13,3 2 1 6 4 SW 1014,5 20 0 0,0
19.10.2018 21:00:00 15,8 13,1 5 3 6 3 N 1013,9 20 0 0,0
19.10.2018 20:00:00 - - - - - - - - - - -
19.10.2018 19:00:00 16,7 12,6 1 1 11 6 W 1012,5 20 0 0,0
19.10.2018 18:00:00 16,7 12,6 9 5 16 9 E 1012,3 20 0 0,0
19.10.2018 17:00:00 18,1 12,3 7 4 19 10 E 1011,9 20 0 0,2
19.10.2018 16:00:00 18,3 10,9 13 7 19 10 ENE 1011,7 20 0 0,0
19.10.2018 15:00:00 18,9 11,4 12 7 25 14 ENE 1011,6 20 0 0,0
19.10.2018 14:00:00 18,7 11,0 13 7 21 12 E 1012,1 20 1 -
19.10.2018 13:00:00 17,8 11,1 13 7 21 12 NE 1012,7 20 17 0,0
19.10.2018 12:00:00 18,2 12,2 5 3 10 5 NNE 1011,9 20 60 0,0
19.10.2018 11:00:00 15,5 12,6 4 2 6 4 N 1012,1 20 5 0,0
19.10.2018 10:00:00 14,4 12,4 3 2 6 3 ESE 1012,3 20 0 0,0
19.10.2018 09:00:00 13,1 11,8 2 1 9 5 SW 1011,5 20 0 0,0
19.10.2018 08:00:00 13,1 11,4 2 1 8 4 NW 1010,9 12 0 -
19.10.2018 07:00:00 13,8 11,7 1 1 6 4 SE 1011,0 20 0 0,0
19.10.2018 06:00:00 14,1 12,3 3 2 7 4 ENE 1010,3 20 0 0,0
19.10.2018 05:00:00 14,1 12,3 2 1 6 4 S 1010,0 20 0 0,0
19.10.2018 04:00:00 14,0 12,4 2 1 5 3 WNW 1010,0 20 0 0,0
19.10.2018 03:00:00 13,9 12,1 2 1 5 3 NW 1010,1 20 0 0,2
19.10.2018 02:00:00 13,8 11,9 3 2 8 4 WSW 1010,6 20 0 -
19.10.2018 01:00:00 14,1 12,0 4 2 13 7 N 1011,3 15 0 0,4
19.10.2018 00:00:00 14,5 11,7 3 2 11 6 SE 1011,0 20 0 0,0
18.10.2018 23:00:00 14,7 11,9 2 1 6 3 S 1011,1 20 0 0,0
18.10.2018 22:00:00 14,9 11,9 2 1 10 6 SSE 1010,6 20 0 0,0
18.10.2018 21:00:00 15,0 12,1 5 3 12 6 S 1009,8 20 0 0,0
18.10.2018 20:00:00 15,7 12,4 9 5 14 7 WSW 1009,2 20 0 -
18.10.2018 19:00:00 16,5 11,7 9 5 34 18 S 1008,0 14 1 0,8
18.10.2018 18:00:00 21,2 8,5 7 4 27 15 ESE 1006,1 20 1 0,0
18.10.2018 17:00:00 21,3 8,3 16 8 39 21 E 1006,1 20 28 0,0
18.10.2018 16:00:00 22,5 9,3 19 10 41 22 ENE 1005,7 20 52 0,0
18.10.2018 15:00:00 21,1 7,7 20 11 36 19 E 1006,7 20 21 0,0
18.10.2018 14:00:00 20,2 10,9 14 8 27 14 ENE 1007,2 20 51 -
18.10.2018 13:00:00 17,4 12,3 10 6 16 9 N 1008,4 20 0 0,0
18.10.2018 12:00:00 16,0 12,0 9 5 13 7 N 1008,8 20 0 0,0
18.10.2018 11:00:00 15,3 11,9 6 4 11 6 NW 1009,1 20 0 0,0
18.10.2018 10:00:00 14,5 12,3 4 2 10 5 W 1009,0 20 0 0,0
18.10.2018 09:00:00 14,2 12,2 5 3 10 5 WSW 1008,5 20 0 0,0
18.10.2018 08:00:00 14,4 12,1 6 3 19 11 NW 1008,1 20 0 -
18.10.2018 07:00:00 14,4 12,4 6 3 10 5 NE 1008,8 20 0 0,0
18.10.2018 06:00:00 14,4 12,4 4 2 8 4 NE 1009,2 20 0 0,0
18.10.2018 05:00:00 14,7 13,1 1 1 8 4 NE 1009,6 17 0 0,0
18.10.2018 04:00:00 14,8 12,8 1 1 8 4 NNE 1010,1 20 0 0,2
18.10.2018 03:00:00 15,1 13,0 3 1 10 5 NNW 1010,8 18 0 0,8
18.10.2018 02:00:00 15,5 12,8 4 2 28 15 SE 1011,3 20 0 -
18.10.2018 01:00:00 17,5 10,6 16 8 26 14 S 1011,4 20 0 0,0
18.10.2018 00:00:00 16,3 10,8 5 3 7 4 SSE 1011,8 14 0 0,0
17.10.2018 23:00:00 16,3 11,4 4 2 6 3 SE 1012,4 20 0 0,0
17.10.2018 22:00:00 16,7 9,8 5 3 7 4 SSW 1012,8 20 0 0,0
17.10.2018 21:00:00 17,3 9,9 4 2 6 4 S 1012,9 20 0 0,0
17.10.2018 20:00:00 19,3 8,9 5 3 12 7 WSW 1012,4 20 12 -
17.10.2018 19:00:00 22,2 6,4 11 6 20 11 W 1011,9 20 60 0,0
17.10.2018 18:00:00 23,6 7,3 11 6 22 12 WSW 1011,9 20 55 0,0
17.10.2018 17:00:00 23,8 8,7 9 5 23 12 W 1012,5 20 57 0,0
17.10.2018 16:00:00 23,5 8,0 13 7 23 13 W 1013,2 20 60 0,0
17.10.2018 15:00:00 23,1 7,6 13 7 19 10 W 1014,1 20 60 0,0
17.10.2018 14:00:00 22,2 9,7 8 5 14 7 WNW 1015,2 20 60 -
17.10.2018 13:00:00 20,3 11,8 4 2 9 5 SSW 1016,5 20 60 0,0
17.10.2018 12:00:00 17,8 11,8 4 2 8 4 WNW 1017,5 20 60 0,0
17.10.2018 11:00:00 15,7 11,4 2 1 6 4 W 1017,9 20 60 0,0

tt = Température de l'air
td = dewpoint
ff = Vitesse du vent
fx = gusts
dd = Direction du vent
ppp = reduced air pressure
vv = visibility
sd = Ensoleillement
rr = Quantités de précipitations

stations d'obs. à proximité